This is the latest recevied weather packets stored in our database for station/object W6ORV. If no packets are shown the sender has not sent any weather packets the latest 10 day(s).
| Time | Temp. | Humidity | Pressure | Rain* | Wind** | Luminosity | Snow |
|---|---|---|---|---|---|---|---|
| 1777731607 | 9.44° C | 99% | 4298.6 hPa | 0 mm | - | 45 W/m² | - |
| 1777731305 | 9.44° C | 99% | 4298.8 hPa | 0 mm | - | 35 W/m² | - |
| 1777731002 | 9.44° C | 99% | 4298.8 hPa | 0 mm | - | 31 W/m² | - |
| 1777730701 | 9.44° C | 99% | 4298.5 hPa | 0 mm | - | 29 W/m² | - |
| 1777730396 | 9.44° C | 99% | 4298.7 hPa | 0 mm | - | 25 W/m² | - |
| 1777730092 | 9.44° C | 99% | 4298.7 hPa | 0 mm | - | 17 W/m² | - |
| 1777729183 | 9.44° C | 99% | 4298.6 hPa | 0 mm | - | 10 W/m² | - |
| 1777728879 | 9.44° C | 99% | 4298.7 hPa | 0 mm | - | 9 W/m² | - |
| 1777728577 | 9.44° C | 99% | 4298.6 hPa | 0 mm | - | 5 W/m² | - |
| 1777728273 | 9.44° C | 99% | 4298.5 hPa | 0 mm | - | 3 W/m² | - |
| 1777727971 | 9.44° C | 99% | 4298.5 hPa | 0 mm | - | 2 W/m² | - |
| 1777727667 | 9.44° C | 99% | 4298.5 hPa | 0 mm | - | 1 W/m² | - |
| 1777727364 | 9.44° C | 99% | 4298.6 hPa | 0 mm | - | 0 W/m² | - |
| 1777727062 | 9.44° C | 99% | 4298.4 hPa | 0 mm | - | 0 W/m² | - |
| 1777726759 | 9.44° C | 99% | 4298.2 hPa | 0 mm | - | 0 W/m² | - |
| 1777726153 | 9.44° C | 99% | 4298.1 hPa | 0 mm | - | 0 W/m² | - |
| 1777725850 | 9.44° C | 99% | 4298.2 hPa | 0 mm | - | 0 W/m² | - |
| 1777725548 | 9.44° C | 99% | 4298.2 hPa | 0 mm | - | 0 W/m² | - |
| 1777725245 | 9.44° C | 99% | 4298.3 hPa | 0 mm | - | 0 W/m² | - |
| 1777724942 | 9.44° C | 99% | 4298.1 hPa | 0 mm | - | 0 W/m² | - |
| 1777724336 | 9.44° C | 99% | 4297.7 hPa | 0 mm | - | 0 W/m² | - |
| 1777724033 | 9.44° C | 99% | 4297.9 hPa | 0 mm | - | 0 W/m² | - |
| 1777723731 | 9.44° C | 99% | 4297.9 hPa | 0 mm | - | 0 W/m² | - |
| 1777723426 | 9.44° C | 99% | 4298 hPa | 0 mm | - | 0 W/m² | - |
| 1777723124 | 9.44° C | 99% | 4297.9 hPa | 0 mm | - | 0 W/m² | - |
* Rain latest hour (hover to see other rain measurements)
** Current wind speed in m/s (hover to see current wind gust speed)